Weather History for PHTO - July, 2014

Change the Weather History Date:

Monday, July 14, 2014

  Actual Average Record
Temperature  
Mean Temperature 79 °F 76 °F  
Max Temperature 84 °F 83 °F 88 °F (1995)
Min Temperature 74 °F 69 °F 64 °F (2001)
Degree Days  
Heating Degree Days 0 0  
Month to date heating degree days 0 0  
Since 1 June heating degree days 0 0  
Since 1 July heating degree days 0 0  
Cooling Degree Days 14 11  
Month to date cooling degree days 134 154  
Year to date cooling degree days 1656 1528  
Since 1 June cooling degree days 400 460  
Growing Degree Days 28 (Base 50)    
Moisture  
Dew Point 73 °F    
Average Humidity 87    
Maximum Humidity 100    
Minimum Humidity 74    
Precipitation  
Precipitation 0.27 in 0.35 in 1.84 in (1968)
Month to date precipitation 6.46 4.57  
Year to date precipitation 60.77 63.85  
Snow  
Snow 0.00 in - - ()
Month to date snowfall 0.0  
Since 1 June snowfall 0.0  
Since 1 July snowfall 0.0  
Snow Depth 0.00 in    
Sea Level Pressure  
Sea Level Pressure 30.07 in    
Wind  
Wind Speed 7 mph (SSW)    
Max Wind Speed 18 mph    
Max Gust Speed 22 mph    
Visibility 9 miles    
Events Rain    
T = Trace of Precipitation, MM = Missing Value Source: NWS Daily Summary

Daily Weather History Graph

Daily Weather History Graph

Search for Another Location

Airport or City:

Trip Planner

Search our weather history database for the weather conditions in past years. The results will help you decide how hot, cold, wet, or windy it might be!

Date:

Astronomy

Jul. 14, 2014 Rise Set
Actual Time 5:49 AM HST 7:02 PM HST
Civil Twilight 5:25 AM HST 7:26 PM HST
Nautical Twilight 4:56 AM HST 7:55 PM HST
Astronomical Twilight 4:27 AM HST 8:24 PM HST
Moon 9:11 PM HST (7/14) 8:18 AM HST (7/14)
Length of Visible Light 14h 01m
Length of Day
13h 12m
Waning Gibbous, 91% of the Moon is Illuminated
Jul 14
Waning Gibbous
Jul 18
Last Quarter
Jul 26
New
Aug 3
First Quarter
Aug 10
Full

Hourly Weather History & Observations

Time (HST) Temp. Heat Index Dew Point Humidity Pressure Visibility Wind Dir Wind Speed Gust Speed Precip Events Conditions
12:00 AM 73.9 °F - 72.0 °F 93% 30.07 in 9.0 mi SSE 4.6 mph - 0.00 in Rain Light Rain
12:53 AM 73.9 °F - 73.0 °F 97% 30.06 in 6.0 mi SSW 5.8 mph - 0.11 in Rain Light Rain
1:40 AM 73.9 °F - 73.0 °F 97% 30.05 in 10.0 mi SW 6.9 mph - 0.03 in   Overcast
1:53 AM 73.9 °F - 73.0 °F 97% 30.04 in 10.0 mi SW 6.9 mph - 0.03 in Rain Light Rain
2:45 AM 73.9 °F - 73.0 °F 97% 30.04 in 10.0 mi SW 4.6 mph - 0.00 in Rain Light Rain
2:53 AM 75.0 °F - 73.0 °F 94% 30.03 in 10.0 mi Calm Calm - 0.00 in Rain Light Rain
3:53 AM 73.9 °F - 73.0 °F 97% 30.04 in 5.0 mi South 3.5 mph - 0.02 in Rain Rain
4:53 AM 73.9 °F - 73.0 °F 97% 30.04 in 6.0 mi SW 5.8 mph - 0.10 in Rain Light Rain
5:00 AM 73.9 °F - 73.0 °F 97% 30.04 in 10.0 mi SW 5.8 mph - 0.00 in Rain Light Rain
5:53 AM 73.9 °F - 73.0 °F 97% 30.05 in 10.0 mi WSW 4.6 mph - 0.01 in   Overcast
6:53 AM 75.0 °F - 73.9 °F 96% 30.07 in 10.0 mi SW 3.5 mph - 0.00 in   Overcast
7:37 AM 75.9 °F - 73.9 °F 94% 30.08 in 10.0 mi WSW 5.8 mph - 0.00 in   Overcast
7:53 AM 77.0 °F - 73.9 °F 90% 30.08 in 10.0 mi West 5.8 mph - 0.00 in   Overcast
8:53 AM 80.1 °F 84.5 °F 73.9 °F 81% 30.08 in 10.0 mi Calm Calm - N/A   Overcast
9:13 AM 79.0 °F - 73.0 °F 82% 30.09 in 10.0 mi SW 6.9 mph - 0.00 in Rain Light Rain
9:53 AM 79.0 °F - 73.9 °F 84% 30.09 in 8.0 mi East 10.4 mph - 0.00 in   Overcast
10:53 AM 80.1 °F 85.4 °F 75.9 °F 87% 30.09 in 10.0 mi North 9.2 mph - 0.00 in   Mostly Cloudy
11:53 AM 84.0 °F 91.9 °F 75.0 °F 74% 30.08 in 10.0 mi ENE 6.9 mph - N/A   Mostly Cloudy
12:53 PM 82.9 °F 89.4 °F 73.9 °F 74% 30.08 in 10.0 mi East 11.5 mph - N/A   Mostly Cloudy
1:53 PM 82.9 °F 89.4 °F 73.9 °F 74% 30.06 in 10.0 mi East 15.0 mph - N/A   Mostly Cloudy
2:53 PM 81.0 °F 86.2 °F 73.9 °F 79% 30.06 in 10.0 mi East 11.5 mph - 0.00 in   Mostly Cloudy
3:53 PM 81.0 °F 85.2 °F 72.0 °F 74% 30.05 in 10.0 mi East 8.1 mph - N/A   Mostly Cloudy
4:53 PM 81.0 °F 85.8 °F 73.0 °F 77% 30.05 in 10.0 mi ENE 5.8 mph - N/A   Overcast
5:10 PM 81.0 °F 85.2 °F 72.0 °F 74% 30.06 in 10.0 mi East 4.6 mph - N/A   Overcast
5:28 PM 80.1 °F 83.8 °F 72.0 °F 76% 30.06 in 10.0 mi ENE 3.5 mph - N/A   Mostly Cloudy
5:53 PM 79.0 °F - 75.0 °F 88% 30.06 in 5.0 mi NE 11.5 mph - 0.00 in Rain Light Rain
5:59 PM 77.0 °F - 75.0 °F 94% 30.07 in 1.8 mi NE 8.1 mph - 0.00 in Rain Heavy Rain
6:12 PM 75.9 °F - 73.0 °F 91% 30.07 in 3.0 mi NNW 4.6 mph - 0.16 in Rain Light Rain
6:36 PM 75.9 °F - 73.9 °F 94% 30.08 in 10.0 mi WSW 3.5 mph - 0.16 in   Overcast
6:53 PM 75.9 °F - 73.9 °F 94% 30.08 in 10.0 mi West 6.9 mph - 0.16 in   Overcast
7:53 PM 75.0 °F - 73.0 °F 94% 30.09 in 10.0 mi WSW 3.5 mph - 0.00 in   Overcast
8:53 PM 75.0 °F - 73.9 °F 96% 30.11 in 10.0 mi West 3.5 mph - N/A   Overcast
9:53 PM 73.0 °F - 73.0 °F 100% 30.11 in 10.0 mi SW 3.5 mph - N/A   Scattered Clouds
10:17 PM 75.0 °F - 73.0 °F 94% 30.12 in 10.0 mi Calm Calm - N/A   Mostly Cloudy
10:53 PM 75.0 °F - 73.0 °F 94% 30.12 in 10.0 mi Calm Calm - 0.00 in   Mostly Cloudy
11:01 PM 75.0 °F - 73.0 °F 94% 30.12 in 10.0 mi Calm Calm - N/A   Scattered Clouds
11:53 PM 73.0 °F - 72.0 °F 96% 30.11 in 10.0 mi WSW 4.6 mph - N/A   Scattered Clouds